Location: Caltech
(34.1382°N, 118.1253°W)
Time: 15:28:09
(UTC-08:00)

Cosmos 1697 Rocket - Visible Passes

Search period start: 23 February 2017 00:00
Search period end: 05 March 2017 00:00
Orbit: 831 x 845 km, 71.0° (Epoch: 23 February)

Date Brightness Start Highest point End Pass type
(mag) Time Alt. Az. Time Alt. Az. Time Alt. Az.
26 Feb 3.9 05:46:52 10° S 05:52:15 47° ESE 05:57:40 10° NNE visible
27 Feb 4.1 05:30:50 10° S 05:36:08 43° ESE 05:41:28 10° NE visible
28 Feb 4.2 05:14:48 10° S 05:20:01 40° ESE 05:25:16 10° NE visible
01 Mar 4.3 04:58:47 10° S 05:03:54 37° ESE 05:09:04 10° NE visible
02 Mar 4.4 04:42:46 10° SSE 04:47:48 34° ESE 04:52:51 10° NE visible
03 Mar 4.5 04:26:47 10° SSE 04:31:41 31° ESE 04:36:37 10° NE visible
04 Mar 4.6 04:10:49 10° SSE 04:15:35 29° ESE 04:20:23 10° NE visible
